KM5HG-3 Weather Reports


Display with metric or nautical units.
time (UTC)temp
F
wind
direction
speed
MPH
gust
MPH
rain 1hr
in
rain 24hr
in
rain mn
in
humidity
%
barometer
mb
20181020231610 69 0 0.0 0.0 0.00 0.00 0.00
20181020231110 70 0 0.0 0.0 0.00 0.00 0.00
20181020230610 71 0 0.0 0.0 0.00 0.00 0.00
20181020230110 72 0 0.0 0.0 0.00 0.00 0.00
20181020225610 72 8 0.0 2.0 0.00 0.00 0.00
20181020225110 71 13 2.0 6.0 0.00 0.00 0.00
20181020224611 71 8 3.0 6.0 0.00 0.00 0.00
20181020224112 71 8 4.0 6.0 0.00 0.00 0.00
20181020223612 71 345 5.0 8.0 0.00 0.00 0.00
20181020223112 71 15 5.0 8.0 0.00 0.00 0.00
20181020222612 71 357 6.0 9.0 0.00 0.00 0.00
20181020222112 71 356 6.0 9.0 0.00 0.00 0.00
20181020221612 71 333 7.0 10.0 0.00 0.00 0.00
20181020221112 71 339 7.0 10.0 0.00 0.00 0.00
20181020220612 73 357 5.0 8.0 0.00 0.00 0.00
20181020220113 72 357 6.0 9.0 0.00 0.00 0.00
20181020215612 71 347 7.0 11.0 0.00 0.00 0.00
20181020214612 72 347 7.0 10.0 0.00 0.00 0.00
20181020214112 72 347 7.0 10.0 0.00 0.00 0.00
20181020213612 71 350 7.0 13.0 0.00 0.00 0.00
20181020213112 73 349 6.0 9.0 0.00 0.00 0.00
20181020212612 72 7 6.0 9.0 0.00 0.00 0.00
20181020212112 72 333 7.0 10.0 0.00 0.00 0.00
20181020211612 71 3 9.0 13.0 0.00 0.00 0.00
20181020211112 72 4 8.0 12.0 0.00 0.00 0.00
20181020210612 71 319 9.0 14.0 0.00 0.00 0.00
20181020210112 71 336 7.0 9.0 0.00 0.00 0.00
20181020205612 72 345 8.0 12.0 0.00 0.00 0.00
20181020205112 71 340 8.0 15.0 0.00 0.00 0.00
20181020204612 72 347 10.0 14.0 0.00 0.00 0.00
20181020204112 72 356 9.0 12.0 0.00 0.00 0.00
20181020203612 72 3 6.0 9.0 0.00 0.00 0.00
20181020203113 73 330 6.0 9.0 0.00 0.00 0.00
20181020202112 71 332 8.0 11.0 0.00 0.00 0.00
20181020201612 73 353 7.0 13.0 0.00 0.00 0.00
20181020201112 70 308 10.0 14.0 0.00 0.00 0.00
20181020200615 71 352 9.0 12.0 0.00 0.00 0.00
20181020200112 70 15 9.0 14.0 0.00 0.00 0.00
20181020195612 71 11 8.0 15.0 0.00 0.00 0.00
20181020195112 71 322 8.0 12.0 0.00 0.00 0.00
20181020194614 70 345 10.0 13.0 0.00 0.00 0.00
20181020194112 70 342 8.0 13.0 0.00 0.00 0.00
20181020193612 70 330 9.0 14.0 0.00 0.00 0.00
20181020193112 70 349 8.0 11.0 0.00 0.00 0.00
20181020192614 69 325 9.0 14.0 0.00 0.00 0.00
20181020192112 71 333 5.0 10.0 0.00 0.00 0.00
20181020191613 71 340 7.0 11.0 0.00 0.00 0.00
20181020191114 70 349 5.0 9.0 0.00 0.00 0.00
20181020190113 69 8 5.0 8.0 0.00 0.00 0.00
20181020185613 70 347 5.0 8.0 0.00 0.00 0.00
20181020185112 70 330 5.0 9.0 0.00 0.00 0.00
20181020184612 70 329 5.0 8.0 0.00 0.00 0.00
20181020184112 69 0 6.0 10.0 0.00 0.00 0.00
20181020183612 70 338 6.0 8.0 0.00 0.00 0.00
20181020183113 70 10 5.0 10.0 0.00 0.00 0.00
20181020182613 70 24 4.0 7.0 0.00 0.00 0.00
20181020182112 68 3 5.0 10.0 0.00 0.00 0.00
20181020181612 68 3 5.0 8.0 0.00 0.00 0.00
20181020181112 68 332 5.0 9.0 0.00 0.00 0.00
20181020180612 68 340 5.0 9.0 0.00 0.00 0.00
20181020180112 68 3 5.0 9.0 0.00 0.00 0.00
20181020175612 68 48 5.0 8.0 0.00 0.00 0.00
20181020175113 68 352 6.0 9.0 0.00 0.00 0.00
20181020174612 71 336 2.0 6.0 0.00 0.00 0.00
20181020174112 69 332 4.0 8.0 0.00 0.00 0.00
20181020173612 68 321 4.0 8.0 0.00 0.00 0.00
20181020172612 68 6 5.0 8.0 0.00 0.00 0.00
20181020172112 68 17 5.0 8.0 0.00 0.00 0.00
20181020171612 67 14 6.0 10.0 0.00 0.00 0.00
20181020171113 67 342 3.0 6.0 0.00 0.00 0.00
20181020170612 67 353 5.0 8.0 0.00 0.00 0.00
20181020170113 68 15 2.0 6.0 0.00 0.00 0.00
20181020165616 68 1 3.0 5.0 0.00 0.00 0.00
20181020165112 68 353 2.0 5.0 0.00 0.00 0.00
20181020164612 66 4 4.0 8.0 0.00 0.00 0.00
20181020164112 67 4 3.0 6.0 0.00 0.00 0.00
20181020163612 67 349 3.0 5.0 0.00 0.00 0.00
20181020163112 66 339 2.0 5.0 0.00 0.00 0.00
20181020162616 66 328 2.0 6.0 0.00 0.00 0.00
20181020162112 63 340 4.0 6.0 0.00 0.00 0.00
20181020161112 67 311 1.0 5.0 0.00 0.00 0.00
20181020160613 63 339 4.0 6.0 0.00 0.00 0.00
20181020160115 65 356 2.0 4.0 0.00 0.00 0.00
20181020155612 64 314 3.0 5.0 0.00 0.00 0.00
20181020155112 61 323 4.0 6.0 0.00 0.00 0.00
20181020154616 61 316 4.0 6.0 0.00 0.00 0.00
20181020154115 61 318 4.0 7.0 0.00 0.00 0.00
20181020153114 62 315 3.0 5.0 0.00 0.00 0.00
20181020151838 58 342 4.0 6.0 0.00 0.00 0.00
20181020151834 55 347 3.0 5.0 0.00 0.00 0.00
20181020151612 58 332 4.0 6.0 0.00 0.00 0.00
20181020151113 58 342 4.0 6.0 0.00 0.00 0.00
20181020150112 56 328 3.0 5.0 0.00 0.00 0.00
20181020145616 57 321 3.0 4.0 0.00 0.00 0.00
20181020145111 57 307 3.0 4.0 0.00 0.00 0.00
20181020144614 57 332 3.0 5.0 0.00 0.00 0.00
20181020144113 56 4 3.0 4.0 0.00 0.00 0.00
20181020143611 55 332 3.0 5.0 0.00 0.00 0.00
20181020143112 54 328 3.0 5.0 0.00 0.00 0.00
20181020142615 55 307 3.0 5.0 0.00 0.00 0.00
20181020142111 55 347 3.0 5.0 0.00 0.00 0.00
20181020141613 55 346 4.0 6.0 0.00 0.00 0.00
20181020141111 55 1 4.0 5.0 0.00 0.00 0.00
20181020140612 55 1 3.0 5.0 0.00 0.00 0.00
20181020140111 57 345 2.0 4.0 0.00 0.00 0.00
20181020135021 54 322 2.0 4.0 0.00 0.00 0.00
20181020134113 54 322 2.0 4.0 0.00 0.00 0.00
20181020133616 54 314 2.0 5.0 0.00 0.00 0.00
20181020133112 54 311 1.0 3.0 0.00 0.00 0.00
20181020132612 54 326 1.0 3.0 0.00 0.00 0.00
20181020132112 53 335 2.0 4.0 0.00 0.00 0.00
20181020131721 53 346 2.0 4.0 0.00 0.00 0.00
20181020131612 53 336 2.0 5.0 0.00 0.00 0.00
20181020131111 53 316 2.0 4.0 0.00 0.00 0.00
20181020130611 53 346 2.0 4.0 0.00 0.00 0.00
20181020130114 53 356 4.0 5.0 0.00 0.00 0.00
20181020125611 53 316 2.0 4.0 0.00 0.00 0.00
20181020125111 53 346 2.0 5.0 0.00 0.00 0.00
20181020124621 53 325 2.0 3.0 0.00 0.00 0.00
20181020124111 53 347 2.0 4.0 0.00 0.00 0.00
20181020122113 53 343 2.0 4.0 0.00 0.00 0.00
20181020121616 53 354 2.0 4.0 0.00 0.00 0.00
20181020120611 53 332 2.0 3.0 0.00 0.00 0.00
20181020120544 54 0 0.0 0.0 0.00 0.00 0.00
20181020120112 54 338 1.0 6.0 0.00 0.00 0.00
20181020115612 54 0 0.0 0.0 0.00 0.00 0.00
20181020115524 54 354 2.0 3.0 0.00 0.00 0.00
20181020115114 54 346 0.0 2.0 0.00 0.00 0.00
20181020114611 54 354 2.0 3.0 0.00 0.00 0.00
20181020114113 53 0 0.0 0.0 0.00 0.00 0.00
20181020113612 54 0 0.0 0.0 0.00 0.00 0.00
20181020113112 53 0 0.0 0.0 0.00 0.00 0.00
20181020112615 53 0 0.0 0.0 0.00 0.00 0.00
20181020112117 53 0 0.0 0.0 0.00 0.00 0.00
20181020111611 53 0 0.0 0.0 0.00 0.00 0.00
20181020111111 53 0 0.0 0.0 0.00 0.00 0.00
20181020110615 54 0 0.0 0.0 0.00 0.00 0.00
20181020110111 54 0 0.0 0.0 0.00 0.00 0.00
20181020105611 54 0 0.0 0.0 0.00 0.00 0.00
20181020105112 54 0 0.0 0.0 0.00 0.00 0.00
20181020104613 54 349 1.0 2.0 0.00 0.00 0.00
20181020104111 55 354 2.0 3.0 0.00 0.00 0.00
20181020103611 55 350 2.0 5.0 0.00 0.00 0.00
20181020103111 55 0 1.0 2.0 0.00 0.00 0.00
20181020102920 54 314 1.0 2.0 0.00 0.00 0.00
20181020102613 55 342 2.0 3.0 0.00 0.00 0.00
20181020101612 54 314 1.0 2.0 0.00 0.00 0.00
20181020101111 55 340 2.0 3.0 0.00 0.00 0.00
20181020100611 55 356 2.0 4.0 0.00 0.00 0.00
20181020095612 55 318 1.0 3.0 0.00 0.00 0.00
20181020095112 55 354 2.0 3.0 0.00 0.00 0.00
20181020094611 55 330 1.0 3.0 0.00 0.00 0.00
20181020094111 55 323 0.0 3.0 0.00 0.00 0.00
20181020093612 55 340 2.0 4.0 0.00 0.00 0.00
20181020093111 55 332 2.0 3.0 0.00 0.00 0.00
20181020092611 55 319 3.0 6.0 0.00 0.00 0.00
20181020091612 55 318 4.0 7.0 0.00 0.00 0.00
20181020091111 55 332 4.0 8.0 0.00 0.00 0.00
20181020090611 56 323 3.0 5.0 0.00 0.00 0.00
20181020090111 55 338 3.0 6.0 0.00 0.00 0.00
20181020085611 55 312 3.0 4.0 0.00 0.00 0.00
20181020085112 55 311 3.0 5.0 0.00 0.00 0.00
20181020084611 55 329 4.0 7.0 0.00 0.00 0.00
20181020084111 55 332 5.0 8.0 0.00 0.00 0.00
20181020083611 55 332 4.0 6.0 0.00 0.00 0.00
20181020083117 55 346 0.0 3.0 0.00 0.00 0.00
20181020082611 55 0 0.0 0.0 0.00 0.00 0.00
20181020082112 55 0 0.0 0.0 0.00 0.00 0.00
20181020081611 55 300 0.0 1.0 0.00 0.00 0.00
20181020081111 55 295 0.0 2.0 0.00 0.00 0.00
20181020080611 55 0 0.0 0.0 0.00 0.00 0.00
20181020080111 55 0 0.0 0.0 0.00 0.00 0.00
20181020075611 55 0 0.0 0.0 0.00 0.00 0.00
20181020075113 55 0 0.0 0.0 0.00 0.00 0.00
20181020074611 55 0 0.0 0.0 0.00 0.00 0.00
20181020074113 55 0 0.0 0.0 0.00 0.00 0.00
20181020073611 55 0 0.0 0.0 0.00 0.00 0.00
20181020073111 55 0 0.0 0.0 0.00 0.00 0.00
20181020072611 55 0 0.0 0.0 0.00 0.00 0.00
20181020072112 55 0 0.0 0.0 0.00 0.00 0.00
20181020071612 55 0 0.0 0.0 0.00 0.00 0.00
20181020071111 55 0 0.0 0.0 0.00 0.00 0.00
20181020070113 55 0 0.0 0.0 0.00 0.00 0.00
20181020065613 55 0 0.0 0.0 0.00 0.00 0.00
20181020065115 55 0 0.0 0.0 0.00 0.00 0.00
20181020064616 55 0 0.0 0.0 0.00 0.00 0.00
20181020064115 55 0 0.0 0.0 0.00 0.00 0.00
20181020063613 55 0 0.0 0.0 0.00 0.00 0.00
20181020063113 55 0 0.0 0.0 0.00 0.00 0.00
20181020062613 55 0 0.0 0.0 0.00 0.00 0.00
20181020062114 55 243 0.0 3.0 0.00 0.00 0.00
20181020061614 55 0 0.0 0.0 0.00 0.00 0.00
20181020061116 55 0 0.0 0.0 0.00 0.00 0.00
20181020060613 55 193 0.0 1.0 0.00 0.00 0.00
20181020060113 55 228 2.0 3.0 0.00 0.00 0.00
20181020055613 55 236 0.0 1.0 0.00 0.00 0.00
20181020055113 55 233 1.0 3.0 0.00 0.00 0.00
20181020054613 55 229 2.0 4.0 0.00 0.00 0.00
20181020054113 55 233 1.0 4.0 0.00 0.00 0.00
20181020053613 55 0 0.0 0.0 0.00 0.00 0.00
20181020053113 55 0 0.0 0.0 0.00 0.00 0.00
20181020052613 55 0 0.0 0.0 0.00 0.00 0.00
20181020052113 55 0 0.0 0.0 0.00 0.00 0.00
20181020051613 55 0 0.0 0.0 0.00 0.00 0.00
20181020051113 55 221 0.0 3.0 0.00 0.00 0.00
20181020050613 55 0 0.0 0.0 0.00 0.00 0.00
20181020050113 55 214 1.0 4.0 0.00 0.00 0.00
20181020045613 56 0 0.0 0.0 0.00 0.00 0.00
20181020045114 55 217 1.0 3.0 0.00 0.00 0.00
20181020044614 55 217 3.0 4.0 0.00 0.00 0.00
20181020044113 55 197 2.0 5.0 0.00 0.00 0.00
20181020043613 56 232 3.0 5.0 0.00 0.00 0.00
20181020043113 55 217 0.0 4.0 0.00 0.00 0.00
20181020042619 55 0 0.0 0.0 0.00 0.00 0.00
20181020042113 56 197 1.0 3.0 0.00 0.00 0.00
20181020041614 55 246 0.0 3.0 0.00 0.00 0.00
20181020041113 55 236 1.0 3.0 0.00 0.00 0.00
20181020040613 55 214 2.0 5.0 0.00 0.00 0.00
20181020040114 55 0 0.0 0.0 0.00 0.00 0.00
20181020035613 55 0 0.0 0.0 0.00 0.00 0.00
20181020035114 55 0 0.0 0.0 0.00 0.00 0.00
20181020034613 55 0 0.0 0.0 0.00 0.00 0.00
20181020034113 55 0 0.0 0.0 0.00 0.00 0.00
20181020033613 55 0 0.0 0.0 0.00 0.00 0.00
20181020033113 55 0 0.0 0.0 0.00 0.00 0.00
20181020032613 55 0 0.0 0.0 0.00 0.00 0.00
20181020032113 55 0 0.0 0.0 0.00 0.00 0.00
20181020031613 55 0 0.0 0.0 0.00 0.00 0.00
20181020031113 55 152 1.0 3.0 0.00 0.00 0.00
20181020030615 56 148 0.0 2.0 0.00 0.00 0.00
20181020030113 55 0 0.0 0.0 0.00 0.00 0.00
20181020025613 55 0 0.0 0.0 0.00 0.00 0.00
20181020025112 55 0 0.0 0.0 0.00 0.00 0.00
20181020024616 55 0 0.0 0.0 0.00 0.00 0.00
20181020024113 56 0 0.0 0.0 0.00 0.00 0.00
20181020023612 55 0 0.0 0.0 0.00 0.00 0.00
20181020023113 55 0 0.0 0.0 0.00 0.00 0.00
20181020022615 56 0 0.0 0.0 0.00 0.00 0.00
20181020022112 55 0 0.0 0.0 0.00 0.00 0.00
20181020021612 56 0 0.0 0.0 0.00 0.00 0.00
20181020021112 55 0 0.0 0.0 0.00 0.00 0.00
20181020020612 56 0 0.0 0.0 0.00 0.00 0.00
20181020020115 56 0 0.0 0.0 0.00 0.00 0.00
20181020015612 56 0 0.0 0.0 0.00 0.00 0.00
20181020015112 56 0 0.0 0.0 0.00 0.00 0.00
20181020014612 55 0 0.0 0.0 0.00 0.00 0.00
20181020014112 56 0 0.0 0.0 0.00 0.00 0.00
20181020013612 55 0 0.0 0.0 0.00 0.00 0.00
20181020013113 56 0 0.0 0.0 0.00 0.00 0.00
20181020012615 55 0 0.0 0.0 0.00 0.00 0.00
20181020012113 56 0 0.0 0.0 0.00 0.00 0.00
20181020011612 56 174 2.0 3.0 0.00 0.00 0.00
20181020011112 55 187 1.0 2.0 0.00 0.00 0.00
20181020010613 56 187 2.0 3.0 0.00 0.00 0.00
20181020010116 56 160 2.0 4.0 0.00 0.00 0.00
20181020005612 56 150 3.0 5.0 0.00 0.00 0.00
20181020005112 55 162 3.0 5.0 0.00 0.00 0.00
20181020004613 55 174 3.0 4.0 0.00 0.00 0.00
20181020004112 56 187 2.0 4.0 0.00 0.00 0.00
20181020003612 55 180 2.0 3.0 0.00 0.00 0.00
20181020003113 55 167 2.0 4.0 0.00 0.00 0.00
20181020002612 55 158 3.0 6.0 0.00 0.00 0.00
20181020002113 55 160 4.0 6.0 0.00 0.00 0.00
20181020001615 55 177 3.0 6.0 0.00 0.00 0.00
20181020001112 55 179 3.0 5.0 0.00 0.00 0.00
20181020000613 55 173 4.0 5.0 0.00 0.00 0.00
20181020000112 55 158 3.0 5.0 0.00 0.00 0.00
20181019235614 56 184 3.0 5.0 0.00 0.00 0.00
20181019235112 55 160 3.0 5.0 0.00 0.00 0.00
20181019234612 55 165 3.0 5.0 0.00 0.00 0.00
20181019234114 55 166 2.0 4.0 0.00 0.00 0.00
20181019233612 56 203 2.0 4.0 0.00 0.00 0.00
20181019233114 55 177 2.0 3.0 0.00 0.00 0.00
20181019232613 56 207 2.0 4.0 0.00 0.00 0.00
20181019232112 56 190 3.0 4.0 0.00 0.00 0.00